Massena, NY

1:35 AM EDT on May 23, 2017 (GMT -0400)
Massena International-Richards

Weather History for KMSS - January, 2013

Change the Weather History Date:

Tuesday, January 8, 2013

  Actual Average Record
Temperature  
Mean Temperature 31 °F 15 °F  
Max Temperature 36 °F 24 °F 60 °F (2008)
Min Temperature 26 °F 5 °F -30 °F (1968)
Degree Days  
Heating Degree Days 34 50  
Month to date heating degree days 401 397  
Since 1 July heating degree days 3187 3496  
Cooling Degree Days 0 0  
Month to date cooling degree days 0  
Year to date cooling degree days 0  
Moisture  
Dew Point 25 °F    
Average Humidity 81    
Maximum Humidity 92    
Minimum Humidity 69    
Precipitation  
Precipitation 0.00 in 0.08 in 1.98 in (1998)
Month to date precipitation 0.18 0.61  
Year to date precipitation 0.18 0.61  
Sea Level Pressure  
Sea Level Pressure 30.25 in    
Wind  
Wind Speed 10 mph (SW)    
Max Wind Speed 22 mph    
Max Gust Speed 28 mph    
Visibility 9 miles    
Events      
T = Trace of Precipitation, MM = Missing Value Source: NWS Daily Summary

Daily Weather History Graph

Daily Weather History Graph

Search for Another Location

Airport or City:

Trip Planner

Search our weather history database for the weather conditions in past years. The results will help you decide how hot, cold, wet, or windy it might be!

Date:

Astronomy

Jan. 08, 2013 Rise Set
Actual Time 7:36 AM EST 4:36 PM EST
Civil Twilight 7:03 AM EST 5:09 PM EST
Nautical Twilight 6:26 AM EST 5:46 PM EST
Astronomical Twilight 5:51 AM EST 6:21 PM EST
Moon 4:05 AM EST (1/8) 1:36 PM EST (1/8)
Length of Visible Light 10h 05m
Length of Day
8h 59m
Waning Crescent, 14% of the Moon is Illuminated
Jan 8
Waning Crescent
Jan 11
New
Jan 18
First Quarter
Jan 26
Full
Feb 3
Last Quarter

Hourly Weather History & Observations

Time (EST) Temp. Windchill Dew Point Humidity Pressure Visibility Wind Dir Wind Speed Gust Speed Precip Events Conditions
12:53 AM 28.0 °F 15.3 °F 21.0 °F 75% 30.14 in 10.0 mi SW 18.4 mph 24.2 mph N/A   Clear
1:53 AM 30.0 °F 19.5 °F 21.9 °F 72% 30.15 in 10.0 mi SW 13.8 mph - N/A   Mostly Cloudy
2:02 AM 30.2 °F 18.9 °F 21.2 °F 69% 30.13 in 10.0 mi SW 16.1 mph - N/A   Overcast
2:44 AM 30.2 °F 18.1 °F 21.2 °F 69% 30.13 in 10.0 mi SSW 18.4 mph - N/A   Overcast
2:53 AM 30.9 °F 19.8 °F 21.9 °F 69% 30.15 in 10.0 mi SSW 16.1 mph - N/A   Overcast
3:53 AM 30.0 °F 17.9 °F 21.9 °F 72% 30.14 in 10.0 mi SSW 18.4 mph - N/A   Partly Cloudy
4:53 AM 30.0 °F 18.3 °F 21.0 °F 69% 30.14 in 10.0 mi SSW 17.3 mph - N/A   Clear
5:53 AM 30.0 °F 19.1 °F 21.0 °F 69% 30.16 in 10.0 mi SW 15.0 mph - N/A   Clear
6:53 AM 30.0 °F 19.5 °F 21.9 °F 72% 30.18 in 10.0 mi SSW 13.8 mph - N/A   Clear
7:53 AM 30.0 °F 19.1 °F 21.9 °F 72% 30.20 in 10.0 mi SSW 15.0 mph - N/A   Overcast
8:53 AM 30.2 °F 20.2 °F 23.0 °F 75% 30.20 in 10.0 mi SW 12.7 mph - N/A   Partly Cloudy
9:29 AM 32.0 °F 22.5 °F 24.8 °F 75% 30.21 in 10.0 mi SW 12.7 mph - N/A   Mostly Cloudy
9:53 AM 32.0 °F 22.1 °F 24.1 °F 73% 30.23 in 10.0 mi SW 13.8 mph - N/A   Overcast
10:53 AM 34.0 °F 26.0 °F 25.0 °F 70% 30.25 in 9.0 mi SW 10.4 mph - N/A   Overcast
11:53 AM 34.0 °F 25.5 °F 25.0 °F 70% 30.25 in 10.0 mi WSW 11.5 mph - N/A   Overcast
12:53 PM 34.0 °F 28.0 °F 25.0 °F 70% 30.26 in 10.0 mi WSW 6.9 mph - N/A   Overcast
1:53 PM 34.0 °F 27.2 °F 27.0 °F 75% 30.28 in 9.0 mi SW 8.1 mph - N/A   Overcast
2:53 PM 35.1 °F 27.9 °F 28.0 °F 76% 30.29 in 8.0 mi SSW 9.2 mph - N/A   Overcast
3:46 PM 33.8 °F 25.8 °F 26.6 °F 75% 30.28 in 7.0 mi SSW 10.4 mph - N/A   Scattered Clouds
3:53 PM 33.1 °F 26.1 °F 27.0 °F 78% 30.30 in 7.0 mi SW 8.1 mph - N/A   Partly Cloudy
4:53 PM 30.0 °F 21.7 °F 25.0 °F 82% 30.32 in 7.0 mi SSW 9.2 mph - N/A   Clear
5:53 PM 30.9 °F 26.2 °F 27.0 °F 85% 30.33 in 8.0 mi SW 4.6 mph - N/A   Overcast
6:53 PM 32.0 °F - 28.0 °F 85% 30.36 in 7.0 mi Calm Calm - N/A   Overcast
7:53 PM 30.9 °F 26.2 °F 27.0 °F 85% 30.37 in 7.0 mi SSW 4.6 mph - N/A   Overcast
8:23 PM 28.4 °F - 26.6 °F 93% 30.35 in 6.0 mi Calm Calm - N/A   Mostly Cloudy
8:53 PM 27.0 °F - 25.0 °F 92% 30.37 in 5.0 mi Calm Calm - N/A   Overcast
9:53 PM 30.0 °F - 28.0 °F 92% 30.36 in 6.0 mi Calm Calm - N/A   Overcast
10:53 PM 30.0 °F - 28.0 °F 92% 30.36 in 6.0 mi Calm Calm - N/A   Overcast
11:53 PM 30.9 °F 27.5 °F 28.9 °F 92% 30.35 in 7.0 mi SSW 3.5 mph - N/A   Overcast